NapervilleWeather.com

Find the Weather for any City, State  
or Zipcode, or Country:

Naperville, IL Weather
Local Radar

Local Radar

Graphs, Details
Graphs and Gauges
Detailed Weather
Detailed Reports
Ajax Version (old)
Davis Summary
Davis Current Weather Graphs
Davis 24 Hour Weather History
Cumulus

CW7164 Data

Weather Underground
www.awekas.at
Automatic Weather Map System
Latest Naperville, Illinois, weather
Weather For You
Maps
Temperature
Heat Index
Windchill
Humidity
Radar
Dew Point
Wind
Visibility
Visible Satellite
Satellite
Fronts
Snow Depth
Jet Stream
Flight Rules
Forecast Maps
Temperature Forecast
Maximum Temperature Forecast
Minimum Temperature Forecast
Dewpoint Forecast
Prevalent Weather
12Hr Probability of Precip.
Sky Cover
Health Maps
UV Forecast
Air Quality
Peak Air Quality Index
Weather Station
Davis Instruments Vantage Pro2
Current Conditions [Select Refresh to Update]

Updated: 1:14am on 7/28/14

(location)
Currently:
65.2°F

Clear
Overcast

High: 65.6 °F< 
(12:00am
Low: 65.2 °F 
(12:50am)
Wind: WSW 0 mph
Calm
Gust: 7 mph
Today's High Wind: 7 mph (1:14am)
Humidity: 76%
Pressure: 29.92 in  (Steady
Pressure Rate: 0.014 in/hr
Dew Point: 57.5°F
Wind Chill: 65.2 °F
Heat Index (feels like): 68.9 °F
Comfort Level: Comfortable
Temperature Rate:  -0.18°F/hr
 
5 Day Forecast
 
Mon Tue Wed Thu Fri
Clear Clear Clear Clear Clear
Partly Cloudy Chance T-storms Partly Cloudy Partly Cloudy Chance T-storms
70 77 79 75 75
54 57 50 50 55

Records and Normals
 
Temperature Forecast Normal Record
High 70 84 91
(2006)
Low 54 63 53
(2013)
 
 
Weather Advisories
No Warnings
Full Advisory Text...
Weather Map

Web Cam

Almanac
 
Sunrise:  
5:44am
Moonrise: 
7:26am

Moon Phase:
1%

Sunset: 
8:16pm
Moonset:  
8:54pm
 Star Chart...
Rainfall Totals
Hourly Rain 0.00 in
Daily Rain: 0.00 in
Monthly Rain: 2.15 in
Yearly Rain: 22.97 in
Normal Rain, month to date: 2.17 in
Normal Rain, year to date: 16.75 in
Local Weather Exchange Network
Station ID City 
(Click for Map Location)
Neighborhood 
(Click for History)
Last Update (Date & Time) Temperature
 ()
Dew
Point ()
Humidity 
(%)
Wind 
(mph)
from the Wind Gust 
(mph) 
Pressure(in) Hourly
Rain(in)
KILNAPER15 Naperville Indian Hill Near Jefferson JHS 07/28 01:09:59 65.0 56.0 73 4 ENE 9 29.89 0.00
KILNAPER25 Naperville brushhill-w 07/28 01:06:54 65.5 57.0 75 1 NW 4 29.88 0.00
KILNAPER24 Naperville Brush Hill 07/28 00:59:27 65.5 59.0 79 0 North 6 29.84 0.00
KILWARRE4 Warrenville Cerny Park 07/28 01:10:01 66.0 60.0 81 2 SE 4 30.09 0.00
KILNAPER19 Naperville Brookdale Lakes 07/28 01:10:04 65.4 58.0 78 1 WSW 5 29.90 0.00
KILNAPER7 Naperville NapervilleWeather.com Near Ogden and Naper Blvd 07/28 01:10:01 65.2 58.0 77 0 SE 1 29.92 0.00
KILWARRE2 Warrenville Warrenville Neighborhood Weather 07/28 01:09:54 64.9 58.0 77 0 NNW 7 29.88 0.00
KILNAPER23 Naperville Naper Blvd at BNSF RR 07/28 01:09:56 64.8 59.0 80 0 WSW 4 29.90 0.00
KILNAPER9 Naperville 75th St. / Modaff Area 07/28 01:09:58 65.1 59.0 81 2 North 4 29.89 0.00
KILWHEAT8 Wheaton Wheaton Sanitary District 07/28 00:55:49 65.8 60.0 80 0 NNW 7 29.89 0.00
KILWHEAT11 Wheaton Wheaton SW Orth Ct 07/28 01:10:04 67.3 57.0 70 0 NE 2 30.05 0.00
KILLOMBA6 Wheaton Danada West 07/28 01:09:33 64.5 54.0 68 7 North 19 29.92 0.00
KILNAPER16 Naperville SE Naperville / NE Clow Arpt 07/28 01:10:01 64.9 58.0 78 6 NE 13 29.91 0.00
KILNAPER22 Naperville Willow Ridge 07/28 01:01:44 64.9 61.0 86 0 NNW 0 29.72 0.00
KILWHEAT5 Wheaton N9ABF - West Wheaton 07/28 00:59:35 64.5 56.0 74 9 North 0 29.90 0.00
MUP431 West Chicago MesoWest WINFL1 IL US UPR 07/27 23:40:00 63.0 0.0 0 0 North 0 0.00 0.00
KILWOODR4 Woodridge Woodridge Neighborhood Weather 07/28 01:00:45 64.8 56.0 72 11 NE 14 29.87 0.00
KILWHEAT10 Wheaton Wheaton College 07/28 01:05:17 64.5 56.0 74 7 North 15 29.88 0.00
KILWOODR2 Woodridge Woodridge 07/28 01:09:54 65.3 57.0 75 5 North 5 29.78 0.00
KILBATAV5 Batavia Fermi National Accelerator Laboratory 07/28 00:55:21 64.8 59.0 82 2 NNW 10 29.85 0.00
KILBOLIN15 Bolingbrook Winding Meadows 07/28 01:10:04 65.9 27.0 23 4 North 12 29.96 0.00
KILDOWNE3 Downers Grove Maple Woods West 07/28 01:10:01 66.2 61.0 82 1 NNE 3 29.95 0.00
KILBOLIN12 Bolingbrook UnderTheThunder HQ 07/28 01:05:09 65.0 58.0 78 5 NNE 5 29.90 0.00
KILBOLIN13 Bolingbrook UnderTheThunder.org Van 07/28 01:09:24 64.4 58.0 80 0 WNW 0 29.85 0.00
KILAUROR22 Aurora Lakewood Valley 07/28 01:09:38 65.1 60.0 82 4 NE 0 29.68 0.00
KILNAPER4 Naperville 1.1 mi.West. of Rt 59 & 103rd St. 07/28 01:09:53 65.3 57.0 75 0 North 0 29.83 0.00
KILAUROR23 Aurora Summerlin 07/28 00:57:49 65.5 57.0 73 9 ENE 0 29.76 0.00
KILGLENE7 Glen Ellyn Glen Ellyn Civic Center 07/28 00:55:25 65.0 58.0 77 6 North 17 29.94 0.00
KILDOWNE6 Downers Grove DGMidTown 07/28 01:05:42 64.0 54.0 69 2 NNE 0 29.78 0.00
KILBOLIN8 Bolingbrook Bolingbrook Neighborhood Weather 07/28 01:09:26 65.2 58.0 78 1 SE 1 29.91 0.00
KILBOLIN16 Bolingbrook Huntington Estates 07/28 01:10:07 64.9 58.0 77 5 NE 11 29.89 0.00
KILDARIE3 Darien Darien, Near 75th St and Lemont Rd (60561) 07/28 01:09:38 67.3 43.0 41 2 NE 6 29.74 0.00
KDPA Chicago DuPage Official Station 07/28 00:52:00 65.0 58.0 78 10 North --- 29.91 ---
KLOT Romeoville Official Station 07/28 00:55:00 65.0 56.0 74 10 North --- 29.93 ---
KARR Aurora Official Station 07/28 00:52:00 64.0 59.0 84 7 NNW --- 29.94 ---
KJOT Joliet Official Station 07/28 00:55:00 65.0 56.0 71 10 NNE --- 29.94 ---
Full Advisory Text
No Warnings

Ambient Weather and Weather Underground
 Never base important decisions on this or any weather information obtained from the Internet
Updated Automatically by Ambient Weather's Virtual Weather Station  V14.01